Tracking 19283 objects as of 18-Nov-2018
HD Live streaming from Space Station
objects crossing your sky now

BIRD GG

Track BIRD GG now!
10-day predictions
BIRD GG is classified as:


NORAD ID: 42821
Int'l Code: 1998-067MV
Perigee: 348.2 km
Apogee: 353.8 km
Inclination: 51.6 °
Period: 91.4 minutes
Semi major axis: 6722 km
RCS: Unknown
Launch date: November 20, 1998
Source: (GHA)
Launch site: TYURATAM MISSILE AND SPACE COMPLEX (TTMTR)

Uplink (MHz):
Downlink (MHz): 437.375
Beacon (MHz): 437.372
Mode: 1k2AFSK 9k6GMSK CW
Call sign: JG6YJP
Status: Inactive

aabbcc
Your satellite tracking list
Your tracking list is empty




NASA's NSSDC Master Catalog

Two Line Element Set (TLE):
1 42821U 98067MV  18321.86384071  .00036111  00000-0  23803-3 0  9990
2 42821  51.6304 296.1857 0004145  53.7219 306.4163 15.75261017 77986
Source of the keplerian elements: AMSAT